Volver al catálogo

DMSP 5D-2 F13 DEB

ActivoSSO
NORAD 40398·DEBRIS·🇺🇸 United States

Lanzado Mar 24, 1995 desde Vandenberg Space Force Base

Loading…

Próximos Pases (próximas 24 horas)

TLE

ActualizadoSource: Space-Track

Época: Sep 14, 2026, 00:06 UTC

1 40398U 95015K   26257.00481030  .00000118  00000-0  80112-4 0  9998
2 40398  98.7977 270.3810 0005530 244.1824 115.8781 14.17485889597122

Sigue DMSP 5D-2 F13 DEB en tiempo real con AllMySat

Download on the App Store